Regional Weather Roundup
Issued by NWS Albany, NY

Home | Current Version | Previous Version | Text Only | Print | Product List | Glossary On
Versions: 1 2 3 4 5 6 7 8 9 10 11 12 13 14 15 16 17 18 19 20 21 22 23 24 25 26 27
000
ASUS41 KALY 231910
RWRALY

NEW YORK STATE HOURLY WEATHER ROUNDUP
NATIONAL WEATHER SERVICE ALBANY NY
200 PM EST THU FEB 23 2017

NOTE: "FAIR" INDICATES FEW OR NO CLOUDS BELOW 12,000 FEET WITH NO
SIGNIFICANT WEATHER AND/OR NO OBSTRUCTIONS TO VISIBILITY.

NYZ032-033-038>043-046>054-057>066-NYZ062>081-082-084-232000-
EAST


CITY           SKY/WX    TMP DP  RH WIND       PRES   REMARKS
ALBANY         MOSUNNY   67  45  45 S15       29.69F
GLENS FALLS    SUNNY     65  44  46 S10G18    29.66F
POUGHKEEPSIE   SUNNY     67  47  48 SE9       29.74F
NEWBURGH       SUNNY     68  52  56 W17G23    29.76F
MONTGOMERY     SUNNY     70  51  51 SW16      29.73F
WHITE PLAINS   SUNNY     61  49  64 S10       29.80F
ISLIP          CLOUDY    53  49  86 S7        29.83F
NEW YORK CITY  MOSUNNY   60  51  72 SW12      29.82F
CENTRAL PARK   SUNNY     60  50  69 VRB6      29.85F
$$

NYZ005>009-017-018-044>046-055-056-232000-
CENTRAL


CITY           SKY/WX    TMP DP  RH WIND       PRES   REMARKS
FULTON         CLOUDY    65  52  62 W10       29.66R
SYRACUSE       PTSUNNY   67  50  54 SW15G24   29.65S
ROME           CLOUDY    64  50  60 SW10      29.68R
ELMIRA         CLOUDY    66  51  58 SW14G29   29.70S
BINGHAMTON     PTSUNNY   60  49  66 SW17G23   29.71F
MONTICELLO     PTSUNNY   64  48  55 SW9       29.78F
$$

NYZ026>034-041>043-087-232000-
NORTH


CITY           SKY/WX    TMP DP  RH WIND       PRES   REMARKS
WATERTOWN      LGT RAIN  55  52  89 SW15G26   29.64R FOG
FORT DRUM      NOT AVBL
OGDENSBURG     CLOUDY    56  52  86 SW14G22   29.58S
MASSENA        CLOUDY    57  50  77 SW18G28   29.57R
SARANAC LAKE   CLOUDY    55  47  74 SW16G26   29.61R
PLATTSBURGH    CLOUDY    59  42  53 S9        29.58R
$$

NYZ001>004-010>016-019>021-085-232000-
WEST


CITY           SKY/WX    TMP DP  RH WIND       PRES   REMARKS
NIAGARA FALLS  SUNNY     63  51  65 SW21G26   29.68R
BUFFALO        MOSUNNY   58  50  75 SW18G30   29.69S
DUNKIRK        CLOUDY    54  49  83 SW14      29.74R
JAMESTOWN      PTSUNNY   61  52  72 SW13G24   29.74R
WELLSVILLE     CLOUDY    60  50  69 SW15G21   29.76R
ROCHESTER      PTSUNNY   63  53  70 W30G38    29.67R
PENN YAN       PTSUNNY   68  48  48 W21G31    29.69R
$$

             KEY
       WCI = WIND CHILL INDEX
       VSB = VISIBILITY
       HX  = HEAT INDEX
$$




USA.gov is the U.S. government's official web portal to all federal, state and local government web resources and services.